Location: Newark
(40.3500°N, 15.2333°E)
Time: 07:45:38
(UTC+00:00)

Altair - Pass Details

Date: 26 January 2020
Orbit: 1502 x 1682 km, 47.2° (Epoch: 17 February)

Event Time Altitude Azimuth Distance (km) Brightness Sun altitude
Rises 09:26:46 0° 268° (W) 4,904 9.9 26.0°
Reaches altitude 10° 09:30:00 10° 272° (W) 3,929 9.4 26.3°
Maximum altitude 09:40:02 61° 352° (N) 1,874 8.1 27.1°
Drops below altitude 10° 09:50:02 10° 72° (ENE) 3,923 9.8 27.9°
Sets 09:53:16 0° 76° (ENE) 4,896 10.2 28.1°
